| time (UTC) | temp F | wind direction | speed knots | gust knots | rain 1hr in | rain 24hr in | rain mn in | humidity % | barometer mb |
| 20260508083003 | 59 | 280 | 2.6 | 7.0 | 0.00 | 0.09 | 0.00 | 38 | 1024.0 |
| 20260508082003 | 59 | 226 | 1.7 | 7.0 | 0.00 | 0.09 | 0.00 | 38 | 1023.8 |
| 20260508081003 | 58 | 227 | 2.6 | 6.1 | 0.00 | 0.09 | 0.00 | 40 | 1024.0 |
| 20260508080003 | 59 | 267 | 1.7 | 6.1 | 0.00 | 0.09 | 0.00 | 39 | 1024.0 |
| 20260508075003 | 58 | 273 | 1.7 | 6.1 | 0.00 | 0.09 | 0.00 | 41 | 1024.0 |
| 20260508074003 | 58 | 248 | 1.7 | 6.1 | 0.00 | 0.09 | 0.00 | 43 | 1023.9 |
| 20260508071003 | 57 | 255 | 1.7 | 6.1 | 0.00 | 0.09 | 0.00 | 42 | 1023.8 |
| 20260508070004 | 60 | 161 | 0.9 | 3.5 | 0.00 | 0.09 | 0.00 | 42 | 1023.7 |
| 20260508065003 | 60 | 339 | 0.9 | 3.5 | 0.00 | 0.09 | 0.00 | 44 | 1023.7 |
| 20260508064003 | 59 | 307 | 0.9 | 2.6 | 0.00 | 0.09 | 0.00 | 49 | 1023.7 |
| 20260508063003 | 57 | 210 | 0.9 | 3.5 | 0.00 | 0.09 | 0.00 | 51 | 1023.6 |
| 20260508062003 | 56 | 314 | 0.9 | 2.6 | 0.00 | 0.09 | 0.00 | 51 | 1023.6 |
| 20260508061003 | 56 | 161 | 0.9 | 3.5 | 0.00 | 0.09 | 0.00 | 51 | 1023.6 |
| 20260508055003 | 53 | 249 | 0.9 | 4.3 | 0.00 | 0.09 | 0.00 | 56 | 1023.3 |
| 20260508054003 | 53 | 215 | 0.9 | 3.5 | 0.00 | 0.09 | 0.00 | 56 | 1023.3 |
| 20260508053004 | 53 | 243 | 0.9 | 3.5 | 0.00 | 0.09 | 0.00 | 57 | 1023.3 |
| 20260508052003 | 52 | 287 | 0.9 | 2.6 | 0.00 | 0.09 | 0.00 | 57 | 1023.0 |
| 20260508051003 | 52 | 253 | 0.9 | 2.6 | 0.00 | 0.09 | 0.00 | 59 | 1022.9 |
| 20260508050004 | 53 | 230 | 0.9 | 3.5 | 0.00 | 0.09 | 0.00 | 60 | 1022.8 |
| 20260508045003 | 52 | 231 | 0.0 | 2.6 | 0.00 | 0.09 | 0.00 | 63 | 1022.8 |
| 20260508043004 | 53 | 123 | 0.0 | 2.6 | 0.00 | 0.09 | 0.00 | 77 | 1022.7 |
| 20260508042004 | 51 | 0 | 0.0 | 0.0 | 0.00 | 0.09 | 0.00 | 87 | 1022.7 |
| 20260508041003 | 49 | 0 | 0.0 | 0.0 | 0.00 | 0.09 | 0.00 | 94 | 1022.7 |
| 20260508040005 | 47 | 0 | 0.0 | 0.0 | 0.00 | 0.09 | 0.00 | 100 | 1022.4 |
| 20260508035003 | 43 | 0 | 0.0 | 0.9 | 0.00 | 0.09 | 0.00 | 100 | 1022.3 |
| 20260508034003 | 39 | 0 | 0.0 | 0.9 | 0.00 | 0.09 | 0.00 | 100 | 1022.2 |
| 20260508033003 | 34 | 0 | 0.0 | 0.9 | 0.00 | 0.09 | 0.00 | 100 | 1022.2 |
| 20260508032003 | 31 | 0 | 0.0 | 0.9 | 0.00 | 0.09 | 0.00 | 100 | 1022.2 |
| 20260508031003 | 29 | 0 | 0.0 | 0.0 | 0.00 | 0.09 | 0.00 | 100 | 1022.1 |
| 20260508025003 | 28 | 0 | 0.0 | 0.9 | 0.00 | 0.09 | 0.00 | 100 | 1022.0 |
| 20260508024003 | 27 | 0 | 0.0 | 0.0 | 0.00 | 0.09 | 0.00 | 100 | 1021.8 |
| 20260508023004 | 27 | 0 | 0.0 | 0.0 | 0.00 | 0.09 | 0.00 | 100 | 1021.7 |
| 20260508022003 | 27 | 0 | 0.0 | 0.9 | 0.00 | 0.09 | 0.00 | 100 | 1021.6 |
| 20260508021004 | 27 | 0 | 0.0 | 0.9 | 0.00 | 0.09 | 0.00 | 100 | 1021.6 |
| 20260508020004 | 27 | 0 | 0.0 | 0.9 | 0.00 | 0.09 | 0.00 | 100 | 1021.5 |
| 20260508015003 | 27 | 0 | 0.0 | 0.9 | 0.00 | 0.09 | 0.00 | 100 | 1021.3 |
| 20260508014003 | 27 | 0 | 0.0 | 0.9 | 0.00 | 0.09 | 0.00 | 100 | 1021.3 |
| 20260508013004 | 28 | 185 | 0.0 | 0.9 | 0.00 | 0.09 | 0.00 | 100 | 1021.3 |
| 20260508012003 | 28 | 187 | 0.0 | 0.9 | 0.00 | 0.09 | 0.00 | 100 | 1021.1 |
| 20260508011003 | 28 | 0 | 0.0 | 0.9 | 0.00 | 0.09 | 0.00 | 100 | 1020.9 |
| 20260508010004 | 28 | 0 | 0.0 | 0.9 | 0.00 | 0.09 | 0.00 | 100 | 1020.8 |
| 20260508005003 | 28 | 181 | 0.0 | 0.9 | 0.00 | 0.09 | 0.00 | 100 | 1020.7 |
| 20260508004004 | 28 | 181 | 0.0 | 0.9 | 0.00 | 0.09 | 0.00 | 100 | 1020.8 |
| 20260508003004 | 28 | 0 | 0.0 | 2.6 | 0.00 | 0.09 | 0.00 | 100 | 1020.6 |
| 20260508002004 | 28 | 210 | 0.9 | 2.6 | 0.00 | 0.09 | 0.00 | 100 | 1020.5 |
| 20260508001004 | 28 | 181 | 0.0 | 0.9 | 0.00 | 0.09 | 0.00 | 100 | 1020.5 |
| 20260508000004 | 28 | 0 | 0.0 | 0.9 | 0.00 | 0.09 | 0.00 | 100 | 1020.4 |
| 20260507235004 | 29 | 0 | 0.0 | 0.0 | 0.00 | 0.09 | 0.00 | 100 | 1020.4 |
| 20260507234004 | 29 | 0 | 0.0 | 0.0 | 0.00 | 0.09 | 0.00 | 100 | 1020.2 |
| 20260507232002 | 29 | 0 | 0.0 | 0.9 | 0.00 | 0.09 | 0.00 | 100 | 1020.0 |
| 20260507231002 | 29 | 0 | 0.0 | 0.9 | 0.00 | 0.09 | 0.00 | 100 | 1019.8 |
| 20260507230002 | 30 | 181 | 0.0 | 0.9 | 0.00 | 0.09 | 0.00 | 100 | 1019.8 |
| 20260507225002 | 30 | 187 | 0.0 | 0.9 | 0.00 | 0.09 | 0.00 | 100 | 1019.7 |
| 20260507224002 | 30 | 0 | 0.0 | 0.9 | 0.00 | 0.09 | 0.00 | 100 | 1019.7 |
| 20260507223002 | 30 | 0 | 0.0 | 0.9 | 0.00 | 0.09 | 0.00 | 100 | 1019.3 |
| 20260507215002 | 32 | 0 | 0.0 | 0.9 | 0.00 | 0.09 | 0.09 | 100 | 1019.2 |
| 20260507214002 | 32 | 0 | 0.0 | 0.9 | 0.00 | 0.09 | 0.09 | 100 | 1018.9 |
| 20260507212002 | 33 | 239 | 0.0 | 0.9 | 0.00 | 0.09 | 0.09 | 100 | 1018.8 |
| 20260507210003 | 33 | 188 | 0.0 | 0.9 | 0.00 | 0.09 | 0.09 | 98 | 1018.5 |
| 20260507205002 | 34 | 0 | 0.0 | 0.9 | 0.00 | 0.09 | 0.09 | 98 | 1018.4 |
| 20260507203003 | 34 | 0 | 0.0 | 0.0 | 0.00 | 0.09 | 0.09 | 94 | 1018.4 |
| 20260507202002 | 35 | 0 | 0.0 | 0.0 | 0.00 | 0.09 | 0.09 | 94 | 1018.3 |
| 20260507201002 | 35 | 0 | 0.0 | 0.0 | 0.00 | 0.09 | 0.09 | 92 | 1018.2 |
| 20260507200002 | 36 | 0 | 0.0 | 0.0 | 0.00 | 0.09 | 0.09 | 90 | 1018.1 |
| 20260507195002 | 37 | 0 | 0.0 | 0.9 | 0.00 | 0.09 | 0.09 | 88 | 1018.0 |
| 20260507194002 | 38 | 0 | 0.0 | 0.9 | 0.00 | 0.09 | 0.09 | 87 | 1017.7 |
| 20260507193003 | 39 | 0 | 0.0 | 0.9 | 0.00 | 0.09 | 0.09 | 85 | 1017.6 |
| 20260507191002 | 41 | 181 | 0.9 | 0.9 | 0.00 | 0.09 | 0.09 | 83 | 1017.5 |
| 20260507190004 | 41 | 0 | 0.0 | 0.9 | 0.00 | 0.09 | 0.09 | 81 | 1017.3 |
| 20260507184003 | 43 | 28 | 0.0 | 2.6 | 0.00 | 0.09 | 0.09 | 79 | 1016.9 |
| 20260507183003 | 43 | 218 | 0.9 | 0.9 | 0.00 | 0.09 | 0.09 | 79 | 1016.9 |
| 20260507182002 | 44 | 192 | 0.0 | 2.6 | 0.00 | 0.09 | 0.09 | 77 | 1016.8 |
| 20260507181002 | 44 | 233 | 0.9 | 3.5 | 0.00 | 0.09 | 0.09 | 77 | 1016.8 |
| 20260507180004 | 44 | 223 | 0.9 | 6.1 | 0.00 | 0.09 | 0.09 | 76 | 1016.7 |
| 20260507173003 | 46 | 227 | 1.7 | 7.0 | 0.00 | 0.09 | 0.09 | 74 | 1016.4 |
| 20260507172003 | 46 | 237 | 1.7 | 7.0 | 0.00 | 0.09 | 0.09 | 73 | 1016.4 |
| 20260507171003 | 46 | 232 | 0.9 | 3.5 | 0.00 | 0.09 | 0.09 | 73 | 1016.3 |
| 20260507170003 | 46 | 233 | 0.9 | 6.1 | 0.00 | 0.09 | 0.09 | 73 | 1016.3 |
| 20260507165002 | 46 | 228 | 0.9 | 3.5 | 0.00 | 0.09 | 0.09 | 73 | 1016.1 |
| 20260507164002 | 46 | 239 | 0.9 | 4.3 | 0.00 | 0.09 | 0.09 | 73 | 1016.0 |
| 20260507163003 | 46 | 255 | 0.9 | 3.5 | 0.00 | 0.09 | 0.09 | 72 | 1016.0 |
| 20260507162002 | 46 | 226 | 0.9 | 2.6 | 0.00 | 0.09 | 0.09 | 72 | 1016.0 |
| 20260507161002 | 47 | 256 | 0.9 | 3.5 | 0.00 | 0.09 | 0.09 | 71 | 1016.0 |
| 20260507160003 | 47 | 273 | 1.7 | 3.5 | 0.00 | 0.09 | 0.09 | 72 | 1015.8 |
| 20260507155003 | 48 | 265 | 1.7 | 7.0 | 0.00 | 0.09 | 0.09 | 71 | 1015.8 |
| 20260507154002 | 48 | 286 | 0.9 | 7.0 | 0.00 | 0.09 | 0.09 | 67 | 1015.7 |
| 20260507153003 | 48 | 317 | 0.9 | 3.5 | 0.00 | 0.09 | 0.09 | 73 | 1015.8 |
| 20260507152002 | 46 | 320 | 0.9 | 2.6 | 0.00 | 0.09 | 0.09 | 75 | 1015.6 |
| 20260507151002 | 45 | 257 | 0.9 | 3.5 | 0.00 | 0.09 | 0.09 | 75 | 1015.6 |
| 20260507145002 | 45 | 278 | 0.9 | 3.5 | 0.00 | 0.09 | 0.09 | 75 | 1015.5 |
| 20260507143003 | 46 | 289 | 1.7 | 7.0 | 0.00 | 0.09 | 0.09 | 72 | 1015.4 |
| 20260507140004 | 53 | 212 | 1.7 | 4.3 | 0.00 | 0.09 | 0.09 | 61 | 1015.2 |
| 20260507135002 | 53 | 261 | 1.7 | 7.0 | 0.00 | 0.09 | 0.09 | 57 | 1014.9 |
| 20260507134003 | 53 | 236 | 1.7 | 7.0 | 0.00 | 0.09 | 0.09 | 69 | 1015.0 |
| 20260507133003 | 51 | 254 | 2.6 | 7.8 | 0.00 | 0.09 | 0.09 | 68 | 1015.0 |
| 20260507131003 | 51 | 184 | 1.7 | 7.8 | 0.00 | 0.09 | 0.09 | 75 | 1015.0 |
| 20260507130003 | 50 | 186 | 2.6 | 7.8 | 0.00 | 0.09 | 0.09 | 74 | 1014.8 |
| 20260507125003 | 49 | 168 | 2.6 | 9.6 | 0.00 | 0.09 | 0.09 | 77 | 1014.8 |
| 20260507123004 | 50 | 143 | 2.6 | 7.0 | 0.00 | 0.09 | 0.09 | 81 | 1014.8 |
| 20260507122003 | 47 | 138 | 2.6 | 7.0 | 0.00 | 0.09 | 0.09 | 83 | 1014.8 |
| 20260507120004 | 45 | 199 | 1.7 | 4.3 | 0.00 | 0.09 | 0.09 | 88 | 1014.8 |
| 20260507115003 | 43 | 52 | 1.7 | 4.3 | 0.01 | 0.09 | 0.09 | 91 | 1014.8 |
| 20260507114002 | 41 | 127 | 1.7 | 6.1 | 0.01 | 0.09 | 0.09 | 94 | 1014.8 |
| 20260507112003 | 39 | 138 | 2.6 | 6.1 | 0.01 | 0.09 | 0.09 | 96 | 1014.8 |
| 20260507110004 | 39 | 166 | 2.6 | 7.0 | 0.04 | 0.09 | 0.09 | 98 | 1015.0 |
| 20260507105002 | 38 | 108 | 0.9 | 3.5 | 0.05 | 0.08 | 0.08 | 97 | 1015.1 |
| 20260507104003 | 38 | 110 | 0.9 | 3.5 | 0.06 | 0.08 | 0.08 | 97 | 1015.2 |
| 20260507102003 | 39 | 116 | 1.7 | 6.1 | 0.08 | 0.08 | 0.08 | 93 | 1015.1 |
| 20260507101002 | 40 | 157 | 1.7 | 6.1 | 0.07 | 0.07 | 0.07 | 91 | 1014.9 |
| 20260507100003 | 40 | 132 | 2.6 | 4.3 | 0.06 | 0.06 | 0.06 | 91 | 1014.4 |
| 20260507095003 | 40 | 94 | 2.6 | 6.1 | 0.04 | 0.04 | 0.04 | 90 | 1014.3 |
| 20260507094003 | 39 | 145 | 0.0 | 2.6 | 0.01 | 0.01 | 0.01 | 86 | 1014.3 |
| 20260507093003 | 40 | 258 | 0.9 | 3.5 | 0.00 | 0.00 | 0.00 | 84 | 1014.5 |
| 20260507092003 | 41 | 279 | 0.9 | 3.5 | 0.00 | 0.00 | 0.00 | 82 | 1014.4 |
| 20260507091002 | 45 | 259 | 1.7 | 7.8 | 0.00 | 0.00 | 0.00 | 73 | 1014.2 |
| 20260507090005 | 48 | 303 | 1.7 | 6.1 | 0.00 | 0.00 | 0.00 | 62 | 1014.0 |
| 20260507085002 | 50 | 307 | 1.7 | 7.0 | 0.00 | 0.00 | 0.00 | 54 | 1013.7 |
| 20260507084003 | 53 | 160 | 2.6 | 7.8 | 0.00 | 0.00 | 0.00 | 49 | 1013.6 |